Flag for Turkey Weather past 2 weeks in Ankara, Turkey

Now
66 °F

Scattered clouds.


Feels Like: 66 °F
Forecast: 48 / 70 °F
Wind: 8 mph from Southwest

Location: Ankara / Esenboga

Current Time: Oct 22, 2014 at 4:34:49 PM

Latest Report: Oct 22, 2014 at 3:50 PM


Visibility: 6 mi

Pressure: 29.95 "Hg

Humidity: 30%

Dew point: 34 °F

Location of AnkaraLocation

Historic Weather in Ankara — Graph

°F

Ankara temperature yesterday

Maximum temperature yesterday: 63 °F (at 2:50 PM)
Minimum temperature yesterday: 28 °F (at 6:50 AM)
Average temperature yesterday: 45 °F

Past Weeks' High & Low Weather Summary

 TemperatureHumidityPressure
High73 °F (Oct 8, 2:20 PM)100% (Oct 13, 6:50 AM)30.27 "Hg (Oct 13, 6:50 AM)
Low28 °F (Oct 20, 3:50 AM)18% (Oct 9, 4:20 PM)29.89 "Hg (Oct 18, 12:50 PM)
Average54 °F69%30.09 "Hg
* Reported Oct 7 3:20 PM — Oct 22 3:20 PM, Ankara, Weather by CustomWeather, © 2014

Note: Actual official high and low records may vary slightly from our data, if they occured in-between our weather recording intervals... More about our weather records

Advertising

Ankara weather history for previous 24 hours

 ConditionsComfort  
Time TempWeatherWind HumidityBarometerVisibility
3:20 PM
Oct 22
68 °FScattered clouds.8 mph26%29.95 "HgN/A
2:50 PM66 °FScattered clouds.10 mph28%29.95 "HgN/A
2:20 PM68 °FScattered clouds.13 mph28%29.95 "HgN/A
1:50 PM66 °FScattered clouds.10 mph28%29.95 "HgN/A
1:20 PM66 °FScattered clouds.7 mph28%29.98 "HgN/A
12:50 PM64 °FPassing clouds.5 mph28%29.98 "HgN/A
12:20 PM61 °FPassing clouds.3 mph31%29.98 "HgN/A
11:50 AM57 °FPassing clouds.3 mph33%30.01 "HgN/A
11:20 AM55 °FSunny.2 mph36%30.01 "Hg10 mi
10:50 AM52 °FSunny.1 mph44%30.01 "Hg10 mi
10:20 AM48 °FSunny.2 mph50%30.01 "Hg10 mi
9:50 AM45 °FSunny.2 mph61%30.01 "Hg10 mi
9:20 AM43 °FSunny.2 mph66%30.01 "Hg10 mi
8:50 AM37 °FSunny.2 mph81%30.01 "Hg10 mi
8:20 AM36 °FSunny.1 mph81%30.01 "Hg10 mi
7:50 AM32 °FClear.1 mph87%30.01 "Hg10 mi
7:20 AM32 °FClear.2 mph87%30.01 "Hg10 mi
6:50 AM30 °FClear.2 mph86%30.01 "Hg10 mi
6:20 AM30 °FClear.2 mph86%30.01 "Hg10 mi
5:50 AM30 °FClear.2 mph86%30.01 "Hg10 mi
5:20 AM32 °FPassing clouds.3 mph87%30.01 "HgN/A
4:50 AM30 °FClear.1 mph93%30.01 "Hg10 mi
4:20 AM32 °FClear.3 mph87%30.01 "Hg10 mi
3:50 AM32 °FClear.1 mph87%30.01 "Hg10 mi
3:20 AM36 °FClear.1 mph75%30.01 "Hg10 mi
2:50 AM34 °FPassing clouds.3 mph81%30.01 "HgN/A
2:20 AM32 °FPassing clouds.3 mph87%30.01 "HgN/A
1:50 AM36 °FClear.1 mph81%30.01 "Hg10 mi
1:20 AM37 °FClear.5 mph75%30.01 "Hg10 mi
12:50 AM37 °FClear.3 mph75%30.01 "Hg10 mi
12:20 AM36 °FPassing clouds.3 mph81%30.01 "HgN/A
11:50 PM
Oct 21
37 °FClear.2 mph81%30.01 "Hg10 mi
11:20 PM41 °FClear.5 mph70%30.04 "Hg10 mi
10:50 PM41 °FClear.3 mph70%30.04 "Hg10 mi
10:20 PM39 °FClear.2 mph75%30.04 "Hg10 mi
9:50 PM45 °FClear.3 mph61%30.04 "Hg10 mi
9:20 PM43 °FClear.2 mph71%30.04 "Hg10 mi
8:50 PM46 °FClear.2 mph57%30.04 "Hg10 mi
8:20 PM48 °FClear.2 mph50%30.04 "Hg10 mi
7:50 PM50 °FPassing clouds.3 mph47%30.04 "HgN/A
7:20 PM52 °FClear.1 mph50%30.04 "Hg10 mi
6:50 PM54 °FSunny.3 mph47%30.04 "Hg10 mi
6:20 PM57 °FPassing clouds.3 mph39%30.01 "HgN/A
5:50 PM57 °FSunny.5 mph39%30.01 "Hg10 mi
5:20 PM61 °FSunny.5 mph31%30.01 "Hg10 mi
4:50 PM63 °FSunny.6 mph27%30.01 "Hg10 mi
4:20 PM63 °FSunny.8 mph25%30.01 "Hg10 mi
Weather by CustomWeather, © 2014

See weather overviewHow to use our weather pages